Regional Weather Roundup
Issued by NWS Little Rock, AR

Home | Current Version | Previous Version | Graphics & Text | Print | Product List | Glossary On
Versions: 1 2 3 4 5 6 7 8 9 10 11 12 13 14 15 16 17 18 19 20 21 22 23 24 25 26 27 28 29 30 31 32 33 34 35 36 37 38 39 40 41 42 43 44 45 46 47 48 49 50
000
ASUS44 KLZK 120505
RWRLZK

WEATHER ROUNDUP FOR ARKANSAS
NATIONAL WEATHER SERVICE LITTLE ROCK AR
1100 PM CST THU FEB 11 2016

NOTE: "FAIR" INDICATES FEW OR NO CLOUDS BELOW 12,000 FEET WITH NO
SIGNIFICANT WEATHER AND/OR OBSTRUCTIONS TO VISIBILITY.

ARZ001-003-010-029-120600-
NORTHWEST ARKANSAS

CITY           SKY/WX    TMP DP  RH WIND       PRES   REMARKS
FAYETTEVILLE   CLEAR     34  27  75 CALM      30.16S
FORT SMITH     CLEAR     42  27  55 E7        30.18S
HARRISON       CLOUDY    38  22  52 SE9       30.15F
BENTONVILLE    CLEAR     37  21  52 S3        30.15S
ROGERS         CLEAR     39  26  59 E3        30.15S
SILOAM SPGS    CLEAR     39  21  48 CALM      30.16S
HIGHFILL       CLEAR     36  25  64 S6        30.14S
$$

ARZ004-005-016-120600-
NORTH CENTRAL ARKANSAS

CITY           SKY/WX    TMP DP  RH WIND       PRES   REMARKS
BATESVILLE     CLOUDY    37  23  56 E5        30.22F
FLIPPIN        CLOUDY    39  19  45 E6        30.17F
MTN HOME       CLOUDY    37  22  54 SE7       30.18S
$$

ARZ040-041-120600-
WEST CENTRAL ARKANSAS

CITY           SKY/WX    TMP DP  RH WIND       PRES   REMARKS
MENA           CLEAR     37  32  81 CALM      30.18R
MOUNT IDA      PTCLDY    42  27  55 CALM      30.17R
$$

ARZ009-017-025-026-028-120600-
NORTHEAST ARKANSAS

CITY           SKY/WX    TMP DP  RH WIND       PRES   REMARKS
JONESBORO      CLOUDY    34  27  75 NE8       30.21F WCI  27
NEWPORT        CLOUDY    34  27  76 NE7       30.23F WCI  28
WALNUT RIDGE   CLOUDY    36  23  60 NE7       30.23S
BLYTHEVILLE    CLOUDY    37  27  67 E13       30.19F
$$

ARZ022-023-033-042-044-120600-
CENTRAL ARKANSAS

CITY           SKY/WX    TMP DP  RH WIND       PRES   REMARKS
LITTLE ROCK    MOCLDY    39  26  59 NE7       30.21F
JACKSONVILLE   CLOUDY    40  26  57 NE3       30.20F
SEARCY         PTCLDY    37  27  65 NE5       30.23F
HOT SPRINGS    CLOUDY    43  25  49 E3        30.20R
RUSSELLVILLE   CLOUDY    40  24  53 SE3       30.20F
CLINTON        FAIR      37  27  65 CALM      30.22S
$$

ARZ036-120600-
EAST ARKANSAS

CITY           SKY/WX    TMP DP  RH WIND       PRES   REMARKS
WEST MEMPHIS   CLOUDY    39  26  59 E7        30.19F
$$

ARZ050-053-066-070-073-120600-
SOUTHWEST ARKANSAS

CITY           SKY/WX    TMP DP  RH WIND       PRES   REMARKS
ARKADELPHIA    FAIR      41  28  60 NE5       30.22R
CAMDEN         PTCLDY    37  28  70 N3        30.20R
TEXARKANA      CLEAR     46  32  58 NE7       30.17R
EL DORADO      CLEAR     43  30  60 NE3       30.18R
DE QUEEN       CLEAR     44  31  60 NE5       30.17R
$$

ARZ056-057-069-120600-
SOUTHEAST ARKANSAS

CITY           SKY/WX    TMP DP  RH WIND       PRES   REMARKS
PINE BLUFF     PTCLDY    37  29  72 N6        30.21R
STUTTGART      MOCLDY    39  27  60 N9        30.21S
MONTICELLO     PTCLDY    43  28  55 VRB5      30.17S

$$





USA.gov is the U.S. government's official web portal to all federal, state and local government web resources and services.